IBS15ND GCTS-LEMD

Flight info

Callsign IBS15ND
Flight time 2h 16m
Altitude 36000
Route VASTO UN858 AKUDA DCT PESAS N858 PARKA Z165 SOTUK
Aircraft A320/M-SDE3FGHIRWY/LB1

Departure

Time 2026-05-04 08:49
Airport Tenerife Sur Airport (GCTS)

Arrival

Time 2026-05-04 11:05
Airport Adolfo Suárez Madrid–Barajas Airport (LEMD)
Time Latitude Longitude Altitude Speed Heading
2026-05-04 08:11 28.04649 -16.57842 226 ft 0 kts 338°
2026-05-04 08:40 28.04628 -16.57833 226 ft 3 kts 336°
2026-05-04 08:40 28.04606 -16.57821 226 ft 3 kts 329°
2026-05-04 08:40 28.04587 -16.57805 227 ft 3 kts 300°
2026-05-04 08:41 28.04583 -16.57788 227 ft 0 kts 248°
2026-05-04 08:43 28.04583 -16.57790 227 ft 1 kts 248°
2026-05-04 08:43 28.04578 -16.57802 224 ft 3 kts 248°
2026-05-04 08:43 28.04567 -16.57833 224 ft 7 kts 248°
2026-05-04 08:44 28.04546 -16.57899 226 ft 9 kts 245°
2026-05-04 08:44 28.04499 -16.57924 223 ft 8 kts 174°
2026-05-04 08:46 28.04248 -16.58349 222 ft 13 kts 249°
2026-05-04 08:46 28.04217 -16.58437 224 ft 11 kts 248°
2026-05-04 08:46 28.04193 -16.58514 222 ft 10 kts 259°
2026-05-04 08:46 28.04163 -16.58615 221 ft 17 kts 249°
2026-05-04 08:47 28.04114 -16.58757 217 ft 21 kts 249°
2026-05-04 08:47 28.04066 -16.58864 212 ft 11 kts 217°
2026-05-04 08:47 28.04001 -16.58854 211 ft 12 kts 142°
2026-05-04 08:47 28.03955 -16.58716 204 ft 24 kts 95°
2026-05-04 08:48 28.04004 -16.58528 208 ft 34 kts 66°
2026-05-04 08:48 28.04174 -16.58036 194 ft 99 kts 68°
2026-05-04 08:48 28.04496 -16.57114 211 ft 149 kts 68°
2026-05-04 08:48 28.04881 -16.55972 675 ft 158 kts 69°
2026-05-04 08:49 28.05145 -16.55197 1095 ft 159 kts 68°
2026-05-04 08:50 28.08262 -16.46457 3838 ft 259 kts 67°
2026-05-04 08:50 28.08811 -16.44468 4476 ft 271 kts 82°
2026-05-04 08:51 28.08947 -16.42321 5307 ft 274 kts 86°
2026-05-04 08:51 28.09068 -16.40131 5987 ft 284 kts 86°
2026-05-04 08:51 28.09199 -16.37853 6627 ft 295 kts 86°
2026-05-04 08:51 28.09337 -16.35522 7275 ft 303 kts 86°
2026-05-04 08:52 28.09485 -16.33114 7978 ft 309 kts 86°
2026-05-04 08:52 28.09639 -16.30658 8713 ft 314 kts 86°
2026-05-04 08:52 28.09799 -16.28172 9483 ft 318 kts 86°
2026-05-04 08:52 28.09964 -16.25690 10235 ft 321 kts 86°
2026-05-04 08:53 28.10136 -16.23155 10950 ft 324 kts 86°
2026-05-04 08:54 28.11470 -16.05214 16016 ft 325 kts 85°
2026-05-04 08:55 28.11659 -16.02620 16333 ft 340 kts 89°
2026-05-04 08:55 28.11569 -15.99869 16467 ft 359 kts 95°
2026-05-04 08:55 28.11384 -15.96972 16601 ft 378 kts 95°
2026-05-04 08:55 28.11188 -15.93971 16729 ft 396 kts 95°
2026-05-04 08:57 28.09622 -15.70698 19694 ft 438 kts 96°
2026-05-04 09:01 28.26027 -15.29307 25008 ft 474 kts 28°
2026-05-04 09:01 28.28759 -15.27271 25317 ft 477 kts 28°
2026-05-04 09:01 28.31544 -15.25196 25633 ft 480 kts 28°
2026-05-04 09:01 28.34339 -15.23114 25924 ft 482 kts 28°
2026-05-04 09:02 28.37156 -15.21012 26220 ft 485 kts 28°
2026-05-04 09:02 28.39982 -15.18895 26549 ft 487 kts 28°
2026-05-04 09:02 28.42818 -15.16770 26923 ft 488 kts 28°
2026-05-04 09:02 28.45663 -15.14639 27245 ft 490 kts 28°
2026-05-04 09:03 28.48515 -15.12503 27549 ft 493 kts 28°
2026-05-04 09:03 28.51386 -15.10356 27840 ft 495 kts 28°
2026-05-04 09:03 28.54273 -15.08200 28129 ft 498 kts 28°
2026-05-04 09:03 28.57171 -15.06035 28412 ft 500 kts 28°
2026-05-04 09:04 28.60083 -15.03852 28674 ft 502 kts 28°
2026-05-04 09:04 28.63006 -15.01652 28943 ft 505 kts 28°
2026-05-04 09:04 28.65945 -14.99439 29213 ft 507 kts 28°
2026-05-04 09:04 28.68852 -14.97255 29459 ft 509 kts 28°
2026-05-04 09:05 28.71814 -14.95033 29770 ft 510 kts 28°
2026-05-04 09:05 28.74777 -14.92805 30102 ft 511 kts 28°
2026-05-04 09:05 28.77752 -14.90560 30314 ft 513 kts 28°
2026-05-04 09:05 28.80729 -14.88307 30536 ft 514 kts 28°
2026-05-04 09:06 28.83706 -14.86053 30835 ft 514 kts 28°
2026-05-04 09:07 29.04570 -14.70278 32825 ft 513 kts 27°
2026-05-04 09:08 29.07543 -14.68021 33125 ft 513 kts 27°
2026-05-04 09:08 29.10476 -14.65794 33385 ft 513 kts 27°
2026-05-04 09:08 29.13453 -14.63531 33652 ft 513 kts 27°
2026-05-04 09:08 29.16427 -14.61269 33921 ft 513 kts 27°
2026-05-04 09:09 29.19405 -14.59004 34188 ft 513 kts 27°
2026-05-04 09:09 29.22379 -14.56742 34420 ft 513 kts 27°
2026-05-04 09:09 29.25351 -14.54477 34682 ft 513 kts 27°
2026-05-04 09:09 29.28316 -14.52214 34955 ft 512 kts 27°
2026-05-04 09:10 29.31278 -14.49953 35210 ft 511 kts 27°
2026-05-04 09:10 29.34234 -14.47696 35490 ft 509 kts 27°
2026-05-04 09:10 29.37173 -14.45448 35752 ft 508 kts 27°
2026-05-04 09:10 29.40113 -14.43202 35988 ft 507 kts 27°
2026-05-04 09:11 29.43050 -14.40959 36104 ft 506 kts 27°
2026-05-04 09:11 29.48862 -14.36509 36132 ft 505 kts 27°
2026-05-04 09:12 29.54700 -14.32033 36133 ft 504 kts 27°
2026-05-04 09:14 29.77996 -14.14098 36136 ft 503 kts 27°
2026-05-04 09:14 29.83774 -14.09641 36139 ft 502 kts 27°
2026-05-04 09:15 29.89582 -14.05149 36143 ft 502 kts 27°
2026-05-04 09:15 29.95374 -14.00665 36140 ft 502 kts 27°
2026-05-04 09:17 30.21475 -13.80348 36158 ft 503 kts 27°
2026-05-04 09:18 30.27274 -13.75822 36165 ft 502 kts 27°
2026-05-04 09:18 30.33066 -13.71300 36160 ft 501 kts 27°
2026-05-04 09:19 30.38838 -13.66788 36158 ft 500 kts 27°
2026-05-04 09:19 30.44609 -13.62264 36154 ft 500 kts 27°
2026-05-04 09:20 30.50332 -13.57760 36151 ft 500 kts 28°
2026-05-04 09:20 30.56084 -13.53211 36178 ft 500 kts 28°
2026-05-04 09:21 30.61810 -13.48644 36163 ft 499 kts 28°
2026-05-04 09:21 30.67537 -13.44072 36160 ft 498 kts 28°
2026-05-04 09:22 30.73249 -13.39512 36156 ft 498 kts 28°
2026-05-04 09:22 30.78919 -13.34979 36153 ft 497 kts 28°
2026-05-04 09:23 30.84628 -13.30409 36181 ft 497 kts 28°
2026-05-04 09:23 30.90328 -13.25845 36167 ft 497 kts 29°
2026-05-04 09:25 31.13114 -13.07716 36182 ft 496 kts 28°
2026-05-04 09:26 31.18813 -13.03161 36172 ft 495 kts 29°
2026-05-04 09:26 31.24495 -12.98617 36166 ft 495 kts 29°
2026-05-04 09:27 31.30169 -12.94076 36159 ft 494 kts 29°
2026-05-04 09:27 31.35845 -12.89531 36158 ft 494 kts 29°
2026-05-04 09:28 31.41482 -12.85003 36154 ft 494 kts 29°
2026-05-04 09:28 31.47143 -12.80448 36172 ft 493 kts 29°
2026-05-04 09:29 31.52801 -12.75891 36166 ft 493 kts 29°
2026-05-04 09:29 31.58446 -12.71336 36164 ft 493 kts 29°
2026-05-04 09:30 31.64098 -12.66773 36162 ft 492 kts 29°
2026-05-04 09:30 31.69741 -12.62208 36162 ft 492 kts 30°
2026-05-04 09:31 31.75373 -12.57634 36171 ft 492 kts 30°
2026-05-04 09:31 31.81015 -12.53061 36172 ft 492 kts 30°
2026-05-04 09:32 31.86607 -12.48517 36168 ft 491 kts 30°
2026-05-04 09:34 32.09088 -12.30215 36170 ft 490 kts 30°
2026-05-04 09:34 32.14707 -12.25642 36162 ft 490 kts 30°
2026-05-04 09:35 32.20319 -12.21057 36156 ft 490 kts 30°
2026-05-04 09:35 32.25899 -12.16485 36156 ft 490 kts 30°
2026-05-04 09:37 32.48343 -11.98056 36148 ft 491 kts 30°
2026-05-04 09:38 32.53914 -11.93456 36150 ft 491 kts 30°
2026-05-04 09:38 32.59522 -11.88817 36184 ft 491 kts 30°
2026-05-04 09:39 32.65138 -11.84176 36171 ft 492 kts 30°
2026-05-04 09:39 32.70748 -11.79537 36172 ft 492 kts 30°
2026-05-04 09:40 32.76360 -11.74879 36166 ft 492 kts 30°
2026-05-04 09:40 32.81935 -11.70246 36159 ft 492 kts 30°
2026-05-04 09:42 33.04339 -11.51550 36158 ft 492 kts 30°
2026-05-04 09:43 33.09035 -11.47623 36158 ft 492 kts 30°
2026-05-04 09:43 33.14640 -11.42931 36157 ft 492 kts 30°
2026-05-04 09:44 33.20209 -11.38250 36172 ft 492 kts 30°
2026-05-04 09:46 33.42538 -11.19267 36165 ft 492 kts 30°
2026-05-04 09:46 33.48119 -11.14510 36184 ft 492 kts 30°
2026-05-04 09:47 33.53662 -11.09765 36177 ft 492 kts 30°
2026-05-04 09:49 33.75930 -10.90669 36199 ft 492 kts 30°
2026-05-04 09:51 33.95362 -10.73900 36170 ft 492 kts 30°
2026-05-04 09:51 34.00925 -10.69087 36178 ft 492 kts 30°
2026-05-04 09:52 34.06451 -10.64291 36181 ft 493 kts 29°
2026-05-04 09:52 34.12023 -10.59446 36164 ft 493 kts 29°
2026-05-04 09:53 34.17595 -10.54584 36160 ft 494 kts 29°
2026-05-04 09:53 34.23171 -10.49725 36154 ft 495 kts 29°
2026-05-04 09:54 34.28755 -10.44855 36163 ft 495 kts 29°
2026-05-04 09:54 34.34351 -10.39971 36165 ft 496 kts 29°
2026-05-04 09:55 34.39950 -10.35070 36156 ft 497 kts 29°
2026-05-04 09:55 34.45516 -10.30168 36154 ft 497 kts 29°
2026-05-04 09:56 34.51121 -10.25232 36156 ft 498 kts 29°
2026-05-04 09:56 34.56733 -10.20292 36200 ft 498 kts 29°
2026-05-04 09:57 34.62343 -10.15348 36180 ft 498 kts 29°
2026-05-04 09:57 34.67963 -10.10405 36171 ft 498 kts 29°
2026-05-04 09:58 34.73541 -10.05511 36171 ft 498 kts 29°
2026-05-04 09:58 34.79159 -10.00566 36169 ft 498 kts 29°
2026-05-04 10:00 35.01528 -9.80759 36178 ft 495 kts 29°
2026-05-04 10:04 35.40381 -9.46046 36199 ft 495 kts 29°
2026-05-04 10:04 35.45935 -9.41059 36180 ft 495 kts 29°
2026-05-04 10:05 35.51491 -9.36052 36170 ft 495 kts 30°
2026-05-04 10:05 35.57042 -9.31034 36165 ft 495 kts 30°
2026-05-04 10:06 35.62596 -9.26006 36161 ft 496 kts 30°
2026-05-04 10:06 35.68149 -9.20979 36152 ft 496 kts 30°
2026-05-04 10:08 35.87558 -9.03330 36142 ft 496 kts 30°
2026-05-04 10:08 35.93118 -8.98242 36174 ft 497 kts 30°
2026-05-04 10:09 35.98363 -8.92604 36157 ft 508 kts 44°
2026-05-04 10:09 36.02943 -8.86012 36149 ft 508 kts 44°
2026-05-04 10:10 36.07557 -8.79381 36147 ft 509 kts 44°
2026-05-04 10:10 36.12181 -8.72752 36144 ft 509 kts 44°
2026-05-04 10:11 36.16798 -8.66109 36139 ft 509 kts 44°
2026-05-04 10:11 36.21409 -8.59449 36174 ft 510 kts 45°
2026-05-04 10:12 36.26017 -8.52766 36164 ft 510 kts 45°
2026-05-04 10:12 36.30626 -8.46072 36148 ft 510 kts 45°
2026-05-04 10:13 36.35233 -8.39385 36145 ft 510 kts 45°
2026-05-04 10:13 36.35335 -8.39237 36145 ft 510 kts 45°
2026-05-04 10:14 36.37414 -8.36214 36144 ft 510 kts 45°
2026-05-04 10:16 36.52716 -8.13865 36164 ft 510 kts 45°
2026-05-04 10:16 36.57310 -8.07144 36156 ft 510 kts 45°
2026-05-04 10:17 36.61893 -8.00420 36148 ft 509 kts 45°
2026-05-04 10:19 36.80112 -7.73475 36146 ft 507 kts 46°
2026-05-04 10:19 36.84651 -7.66734 36137 ft 506 kts 46°
2026-05-04 10:20 36.89178 -7.59990 36142 ft 506 kts 46°
2026-05-04 10:20 36.93701 -7.53243 36134 ft 506 kts 46°
2026-05-04 10:21 36.98232 -7.46485 36118 ft 507 kts 46°
2026-05-04 10:21 37.02756 -7.39707 36140 ft 507 kts 46°
2026-05-04 10:22 37.09555 -7.29566 36132 ft 506 kts 46°
2026-05-04 10:23 37.14104 -7.22828 36123 ft 506 kts 46°
2026-05-04 10:25 37.32211 -6.95745 36123 ft 507 kts 46°
2026-05-04 10:25 37.36736 -6.88928 36109 ft 507 kts 46°
2026-05-04 10:26 37.41255 -6.82104 36092 ft 507 kts 46°
2026-05-04 10:26 37.45780 -6.75278 36083 ft 508 kts 46°
2026-05-04 10:27 37.50275 -6.68492 36071 ft 508 kts 46°
2026-05-04 10:27 37.54791 -6.61637 36107 ft 509 kts 46°
2026-05-04 10:28 37.59307 -6.54767 36092 ft 509 kts 46°
2026-05-04 10:28 37.63822 -6.47891 36080 ft 509 kts 46°
2026-05-04 10:29 37.68340 -6.41003 36062 ft 509 kts 47°
2026-05-04 10:29 37.72853 -6.34103 36053 ft 510 kts 47°
2026-05-04 10:30 37.77366 -6.27175 36056 ft 510 kts 47°
2026-05-04 10:30 37.81883 -6.20245 36076 ft 510 kts 47°
2026-05-04 10:31 37.85637 -6.14474 36071 ft 510 kts 47°
2026-05-04 10:32 38.03381 -5.93313 36037 ft 499 kts 26°
2026-05-04 10:33 38.09260 -5.88599 36071 ft 500 kts 27°
2026-05-04 10:33 38.15134 -5.83859 36062 ft 500 kts 27°
2026-05-04 10:34 38.21007 -5.79123 36058 ft 500 kts 27°
2026-05-04 10:34 38.26876 -5.74381 36052 ft 500 kts 27°
2026-05-04 10:35 38.32707 -5.69661 36038 ft 500 kts 27°
2026-05-04 10:35 38.38588 -5.64910 36038 ft 500 kts 27°
2026-05-04 10:36 38.44473 -5.60143 36034 ft 501 kts 27°
2026-05-04 10:36 38.50354 -5.55360 36039 ft 501 kts 27°
2026-05-04 10:37 38.56228 -5.50556 36066 ft 501 kts 27°
2026-05-04 10:37 38.62088 -5.45756 36065 ft 499 kts 27°
2026-05-04 10:39 38.82609 -5.29189 36033 ft 497 kts 27°
2026-05-04 10:40 38.88455 -5.24425 36030 ft 498 kts 27°
2026-05-04 10:40 38.94315 -5.19650 35694 ft 499 kts 27°
2026-05-04 10:40 38.97187 -5.17133 35436 ft 503 kts 34°
2026-05-04 10:41 38.99776 -5.14156 34922 ft 510 kts 42°
2026-05-04 10:41 39.02090 -5.10621 33976 ft 523 kts 52°
2026-05-04 10:41 39.04048 -5.06644 33077 ft 527 kts 57°
2026-05-04 10:41 39.05942 -5.02643 32588 ft 520 kts 57°
2026-05-04 10:42 39.07836 -4.98676 31948 ft 517 kts 56°
2026-05-04 10:42 39.09723 -4.94754 31330 ft 514 kts 56°
2026-05-04 10:42 39.11605 -4.90852 30748 ft 510 kts 57°
2026-05-04 10:42 39.13474 -4.86976 30153 ft 507 kts 57°
2026-05-04 10:43 39.15329 -4.83121 29506 ft 504 kts 57°
2026-05-04 10:44 39.30597 -4.60134 25725 ft 468 kts 42°
2026-05-04 10:45 39.32881 -4.57167 25217 ft 463 kts 42°
2026-05-04 10:45 39.35140 -4.54228 24749 ft 459 kts 42°
2026-05-04 10:45 39.37382 -4.51310 24270 ft 455 kts 42°
2026-05-04 10:45 39.39605 -4.48419 23791 ft 452 kts 42°
2026-05-04 10:46 39.41815 -4.45546 23252 ft 449 kts 42°
2026-05-04 10:46 39.44003 -4.42699 22773 ft 443 kts 42°
2026-05-04 10:46 39.46167 -4.39881 22296 ft 438 kts 42°
2026-05-04 10:46 39.48298 -4.37100 21824 ft 433 kts 42°
2026-05-04 10:47 39.50412 -4.34340 21349 ft 430 kts 42°
2026-05-04 10:47 39.52511 -4.31596 20843 ft 427 kts 42°
2026-05-04 10:47 39.54575 -4.28896 20228 ft 426 kts 42°
2026-05-04 10:47 39.56643 -4.26181 19818 ft 420 kts 42°
2026-05-04 10:49 39.70346 -4.08144 15715 ft 386 kts 43°
2026-05-04 10:49 39.72218 -4.05681 15139 ft 382 kts 43°
2026-05-04 10:50 39.74084 -4.03225 14622 ft 382 kts 43°
2026-05-04 10:51 39.85625 -3.87924 13651 ft 302 kts 43°
2026-05-04 10:52 39.87090 -3.85986 13143 ft 299 kts 43°
2026-05-04 10:52 39.88538 -3.84066 12698 ft 294 kts 43°
2026-05-04 10:52 39.89956 -3.82184 12241 ft 289 kts 44°
2026-05-04 10:54 39.99668 -3.69250 9945 ft 282 kts 45°
2026-05-04 10:54 40.01032 -3.67426 9674 ft 279 kts 45°
2026-05-04 10:56 40.10289 -3.55017 7490 ft 266 kts 44°
2026-05-04 10:56 40.11579 -3.53290 7191 ft 265 kts 44°
2026-05-04 10:56 40.12867 -3.51563 6919 ft 264 kts 44°
2026-05-04 10:57 40.14148 -3.49839 6635 ft 264 kts 44°
2026-05-04 10:57 40.15425 -3.48119 6347 ft 262 kts 44°
2026-05-04 10:57 40.16693 -3.46411 6051 ft 261 kts 43°
2026-05-04 10:57 40.17996 -3.44748 5717 ft 263 kts 41°
2026-05-04 10:58 40.19356 -3.43133 5401 ft 262 kts 40°
2026-05-04 10:58 40.20733 -3.41572 5068 ft 261 kts 34°
2026-05-04 10:58 40.22274 -3.40378 4749 ft 257 kts 26°
2026-05-04 10:58 40.23846 -3.39268 4370 ft 256 kts 23°
2026-05-04 10:59 40.25501 -3.38583 4158 ft 245 kts
2026-05-04 10:59 40.27183 -3.38574 4023 ft 240 kts 347°
2026-05-04 10:59 40.28797 -3.38863 4000 ft 228 kts 347°
2026-05-04 10:59 40.30266 -3.39360 3994 ft 210 kts 329°
2026-05-04 11:00 40.31448 -3.40354 3996 ft 198 kts 316°
2026-05-04 11:01 40.37801 -3.46771 3974 ft 146 kts 315°
2026-05-04 11:02 40.38604 -3.47584 3843 ft 145 kts 314°
2026-05-04 11:02 40.39402 -3.48391 3666 ft 145 kts 314°
2026-05-04 11:05 40.48165 -3.57396 2003 ft 17 kts 296°
2026-05-04 11:06 40.48209 -3.57525 1999 ft 16 kts 293°
2026-05-04 11:06 40.48280 -3.57658 1996 ft 12 kts 322°
2026-05-04 11:06 40.48360 -3.57738 1994 ft 18 kts 323°
2026-05-04 11:06 40.48472 -3.57851 1992 ft 22 kts 322°
2026-05-04 11:08 40.48595 -3.58575 2030 ft 10 kts 269°
2026-05-04 11:10 40.49099 -3.58813 2022 ft 18 kts 359°
2026-05-04 11:12 40.49444 -3.58969 2030 ft 0 kts 269°
2026-05-04 11:12 40.49444 -3.58970 2030 ft 0 kts 269°